CW7283 Weather Reports


Display with metric or nautical units.
time (UTC)temp
F
wind
direction
speed
MPH
gust
MPH
rain 1hr
in
rain 24hr
in
rain mn
in
humidity
%
barometer
mb
20260502130353 33 219 0.0 0.0 0.00 0.00 0.00 75 1016.3
20260502123352 31 219 0.0 0.0 0.00 0.00 0.00 75 1016.3
20260502121825 31 209 0.0 0.0 0.00 0.00 0.00 76 1016.3
20260502120326 31 218 0.0 0.0 0.00 0.00 0.00 76 1016.4
20260502114833 31 218 0.0 0.0 0.00 0.00 0.00 76 1016.4
20260502113325 31 218 0.0 0.0 0.00 0.00 0.00 74 1016.4
20260502111840 31 218 0.0 0.0 0.00 0.00 0.00 75 1016.4
20260502110345 31 219 0.0 0.0 0.00 0.00 0.00 75 1016.4
20260502104834 31 232 0.0 0.0 0.00 0.00 0.00 75 1016.5
20260502103345 32 232 0.0 0.0 0.00 0.00 0.00 74 1016.5
20260502101843 32 232 0.0 0.0 0.00 0.00 0.00 73 1016.5
20260502100401 33 232 0.0 0.0 0.00 0.00 0.00 71 1016.6
20260502090333 33 193 0.0 0.0 0.00 0.00 0.00 72 1016.8
20260502070329 37 182 0.0 0.0 0.00 0.00 0.00 68 1018.1
20260502064850 38 182 0.0 0.0 0.00 0.00 0.00 67 1018.2
20260502063348 38 182 0.0 0.0 0.00 0.00 0.00 65 1018.2
20260502061839 39 182 0.0 1.0 0.00 0.00 0.00 66 1018.2
20260502060334 39 176 0.0 0.0 0.00 0.00 0.00 64 1018.1
20260502054839 40 176 0.0 0.0 0.00 0.00 0.00 63 1018.3
20260502053333 41 176 0.0 0.0 0.00 0.00 0.00 62 1018.3
20260502051828 41 176 0.0 0.0 0.00 0.00 0.00 62 1018.3
20260502050334 42 182 0.0 0.0 0.00 0.00 0.00 61 1018.3
20260502044853 43 182 0.0 0.0 0.00 0.00 0.00 59 1018.3
20260502043338 44 182 0.0 0.0 0.00 0.00 0.00 59 1018.4
20260502041855 45 182 0.0 0.0 0.00 0.00 0.00 57 1018.6
20260502040358 46 179 0.0 0.0 0.00 0.00 0.00 53 1018.5
20260502034903 47 201 0.0 0.0 0.00 0.00 0.00 53 1018.4
20260502033342 48 202 0.0 0.0 0.00 0.00 0.00 52 1018.4
20260502031825 49 202 0.0 0.0 0.00 0.00 0.00 50 1018.3
20260502030338 51 212 0.0 2.0 0.00 0.00 0.00 47 1018.2
20260502024857 53 355 0.0 0.0 0.00 0.00 0.00 45 1017.8
20260502023337 55 355 0.0 0.0 0.00 0.00 0.00 42 1017.7
20260502021821 56 355 0.0 0.0 0.00 0.00 0.00 38 1017.7
20260502020359 58 355 0.0 0.0 0.00 0.00 0.00 36 1017.7
20260502014828 59 355 0.0 0.0 0.00 0.00 0.00 35 1017.7
20260502013354 59 349 0.0 1.0 0.00 0.00 0.00 34 1017.6
20260502011836 60 360 0.0 2.0 0.00 0.00 0.00 34 1017.6
20260502010334 60 13 0.0 2.0 0.00 0.00 0.00 34 1017.6
20260502004829 61 5 0.0 3.0 0.00 0.00 0.00 33 1017.5
20260502003335 61 17 0.0 6.0 0.00 0.00 0.00 32 1017.5
20260502001840 63 360 0.0 3.0 0.00 0.00 0.00 30 1017.5
20260502000336 64 28 1.0 4.0 0.00 0.00 0.00 28 1017.6
20260501234834 64 303 0.0 4.0 0.00 0.00 0.00 29 1017.7
20260501233343 65 355 0.0 2.0 0.00 0.00 0.00 28 1017.6
20260501231844 65 355 0.0 2.0 0.00 0.00 0.00 29 1017.5
20260501230355 65 313 0.0 4.0 0.00 0.00 0.00 29 1017.7
20260501224845 65 150 0.0 3.0 0.00 0.00 0.00 28 1017.7
20260501223330 65 23 1.0 4.0 0.00 0.00 0.00 29 1017.7
20260501221839 64 343 1.0 5.0 0.00 0.00 0.00 29 1017.7
20260501220329 64 19 0.0 6.0 0.00 0.00 0.00 29 1017.7
20260501214859 64 324 0.0 8.0 0.00 0.00 0.00 29 1017.7
20260501213329 64 296 0.0 7.0 0.00 0.00 0.00 29 1017.9
20260501211828 64 355 1.0 5.0 0.00 0.00 0.00 28 1018.1
20260501210337 64 291 0.0 5.0 0.00 0.00 0.00 28 1018.2
20260501204827 65 11 2.0 8.0 0.00 0.00 0.00 29 1018.2
20260501203331 64 302 1.0 6.0 0.00 0.00 0.00 30 1018.2
20260501201827 64 36 2.0 6.0 0.00 0.00 0.00 30 1018.3
20260501200334 63 28 1.0 6.0 0.00 0.00 0.00 32 1018.3
20260501194852 63 288 1.0 6.0 0.00 0.00 0.00 33 1018.3
20260501193356 61 30 3.0 11.0 0.00 0.00 0.00 30 1018.3
20260501191826 62 337 3.0 9.0 0.00 0.00 0.00 30 1018.3
20260501190345 62 318 1.0 8.0 0.00 0.00 0.00 34 1018.4
20260501184839 61 23 4.0 14.0 0.00 0.00 0.00 33 1018.4
20260501183334 62 355 1.0 9.0 0.00 0.00 0.00 36 1018.6
20260501181825 61 349 2.0 10.0 0.00 0.00 0.00 35 1018.6
20260501180335 61 32 3.0 10.0 0.00 0.00 0.00 33 1018.4
20260501174855 60 28 3.0 9.0 0.00 0.00 0.00 33 1018.5
20260501173400 60 24 3.0 9.0 0.00 0.00 0.00 33 1018.7
20260501171856 59 13 5.0 12.0 0.00 0.00 0.00 35 1018.6
20260501170342 59 48 1.0 8.0 0.00 0.00 0.00 36 1018.7
20260501164831 58 25 3.0 7.0 0.00 0.00 0.00 35 1018.6
20260501163358 58 298 2.0 8.0 0.00 0.00 0.00 36 1018.6
20260501161829 57 76 2.0 9.0 0.00 0.00 0.00 38 1018.5
20260501160355 57 13 2.0 9.0 0.00 0.00 0.00 38 1018.6
20260501154835 56 54 0.0 6.0 0.00 0.00 0.00 40 1018.6
20260501153329 54 24 0.0 3.0 0.00 0.00 0.00 48 1018.5
20260501151832 51 35 0.0 1.0 0.00 0.00 0.00 50 1018.7
20260501150358 49 11 0.0 2.0 0.00 0.00 0.00 51 1018.7
20260501144828 46 121 0.0 0.0 0.00 0.00 0.00 56 1018.6
20260501143354 43 191 0.0 0.0 0.00 0.00 0.00 59 1018.6
20260501141836 40 149 0.0 0.0 0.00 0.00 0.00 64 1018.7
20260501140337 37 200 0.0 1.0 0.00 0.00 0.00 69 1018.8